Temperature
14 14 14 14 14 14 14 14 14 13 13 13 13 13 12 12 12 13 12 12 13 13 13 13 13 13 12 12 12 12 12 12 12 12 12 12 11 11
14 14 14 14 14 14 14 14 14 14 13 13 13 13 12 12 12 12 12 12 12 12 12 12 12 12 12 12 12 12 12 12 12 12 12 11 11 11
14 14 14 14 14 14 14 14 14 13 13 13 13 12 12 12 12 12 12 12 12 12 12 12 12 12 12 12 12 12 12 12 11 11 11 11 11 11
14 14 14 14 14 14 14 14 13 13 13 13 13 12 12 12 12 12 12 12 12 12 12 12 12 12 12 12 11 11 11 11 11 11 11 11 10 10
14 14 14 14 14 14 14 14 13 13 13 13 13 12 12 12 12 12 12 12 12 12 12 11 11 11 11 11 11 11 11 11 11 11 10 10 10 10
14 14 14 14 14 14 14 13 13 13 13 13 13 12 12 12 12 12 12 12 11 11 11 11 11 11 11 11 11 11 11 10 10 10 10 10 10 9
14 14 14 14 14 13 13 13 13 13 13 13 12 12 12 12 12 12 11 11 11 11 11 11 11 11 11 10 10 10 10 10 10 10 9 9 9 9
14 14 14 14 13 13 13 13 13 13 13 12 12 12 12 12 12 11 11 11 11 11 11 11 10 10 10 10 10 10 10 10 9 9 9 9 9 9
14 14 14 14 13 13 13 13 13 13 12 12 12 12 12 12 11 11 11 11 11 10 11 11 10 10 10 10 9 9 9 9 9 9 9 8 8 8
14 13 13 13 13 13 13 13 13 12 12 12 12 12 11 11 11 11 11 11 10 10 10 10 10 10 10 9 9 9 9 9 9 9 8 8 8 8
14 13 13 13 13 13 13 13 13 12 12 12 12 11 11 11 11 11 11 11 10 10 10 10 10 10 9 9 9 9 8 8 8 8 8 8 8 7
14 13 13 13 13 13 13 12 12 12 12 12 12 11 11 11 11 11 10 10 10 10 10 9 9 9 9 9 8 8 8 8 8 7 7 7 7 7
13 13 13 13 13 13 12 12 12 12 12 12 11 11 11 11 11 10 10 10 10 9 9 9 9 9 8 8 8 8 8 7 7 7 7 7 6 6
13 13 13 12 12 12 12 12 12 12 12 11 11 11 11 11 10 10 10 10 9 9 9 9 8 8 8 8 8 8 7 7 7 6 6 6 6 6
13 13 12 12 12 12 12 12 11 11 11 11 11 11 10 10 10 10 10 9 9 9 9 8 8 8 8 7 7 7 7 7 6 6 6 6 6 5
13 12 12 12 12 12 11 11 11 11 11 11 11 10 10 10 10 10 9 9 9 9 8 8 8 8 7 7 7 6 6 6 6 6 5 5 5 5
12 12 12 12 12 11 11 11 11 11 11 11 10 10 10 10 9 9 9 9 9 8 8 8 8 7 7 6 6 6 6 5 5 5 5 5 5 4
12 12 12 11 11 11 11 11 11 10 10 10 10 10 10 9 9 9 8 8 8 8 7 7 7 7 7 6 6 5 5 5 5 4 4 4 4 4
12 12 11 11 11 11 10 10 10 10 10 9 9 9 9 9 8 8 8 8 8 7 7 6 6 6 5 5 5 5 5 4 4 4 4 3 3 3
11 11 11 11 10 10 10 10 10 10 9 9 9 9 9 8 8 8 7 7 7 7 6 6 6 5 5 4 4 4 4 4 4 3 3 3 3 3
11 11 11 10 10 10 10 10 10 9 9 9 9 9 8 8 8 7 7 7 6 6 6 6 5 5 4 4 4 4 4 3 3 3 2 2 2 2
11 10 10 10 10 10 10 10 9 9 9 9 8 8 8 8 7 7 7 6 6 6 5 5 5 4 4 4 3 3 3 3 3 3 2 2 1 1
10 10 10 10 10 10 9 9 9 9 9 8 8 8 7 7 7 7 6 6 6 5 5 5 4 4 4 3 3 3 3 3 3 2 2 2 2 1
Wind_Speed
2 2 2 1 2 2 3 3 4 2 1 2 2 2 3 4 6 6 7 9 10 10 9 9 10 10 11 11 11 11 12 12 12 12 13 13 13 13
1 2 2 1 2 2 3 2 3 4 2 1 1 2 2 3 5 6 6 8 9 10 9 9 9 9 9 9 9 9 10 10 10 11 11 12 12 12
2 2 2 2 3 2 3 3 2 3 2 1 1 1 2 2 4 5 5 6 7 9 9 9 9 8 8 8 8 8 9 9 9 9 9 10 10 10
2 3 2 3 3 3 3 3 2 2 3 1 1 2 2 1 2 3 4 4 5 7 8 8 8 8 8 7 8 7 8 8 8 8 8 9 9 9
2 3 3 4 3 2 3 3 2 2 2 2 0 1 1 2 2 2 3 4 4 5 6 7 7 8 7 7 7 6 6 7 7 7 8 8 8 8
2 2 3 4 4 4 3 3 3 3 3 3 1 1 1 1 1 2 2 3 3 4 5 5 6 7 7 7 7 6 6 6 6 7 7 7 8 8
1 1 2 4 5 5 4 4 4 3 3 2 1 1 1 1 1 1 1 2 2 2 3 4 4 5 6 6 6 6 6 6 6 6 6 7 7 8
2 1 1 2 4 5 6 7 7 5 4 3 1 1 2 2 1 0 0 1 2 2 2 3 3 3 5 5 6 6 6 6 6 6 6 6 6 7
2 2 1 2 3 3 4 4 4 4 6 5 4 3 3 3 2 1 1 1 1 2 1 2 2 2 4 5 6 6 6 6 6 6 6 6 6 6
2 2 2 2 3 5 4 4 2 1 3 3 3 3 3 3 4 3 3 1 1 1 1 1 2 2 3 4 5 6 7 7 7 7 6 6 6 6
2 2 3 3 4 7 5 4 1 0 1 3 3 2 1 2 4 3 2 1 1 1 0 1 1 2 2 2 5 6 6 7 7 7 7 7 6 6
1 2 3 4 4 7 5 5 3 2 1 2 1 1 1 1 3 3 3 2 1 1 1 1 1 1 2 2 3 5 4 5 6 7 7 7 6 5
2 2 2 5 5 6 6 4 5 3 2 2 1 1 2 2 1 1 2 3 2 2 1 1 1 0 1 2 2 3 4 4 5 5 6 6 6 4
4 3 3 5 6 6 5 4 4 4 2 2 1 0 0 1 1 0 1 2 2 2 1 2 1 2 1 1 2 2 3 4 3 4 5 6 6 6
3 5 5 5 5 3 4 4 4 3 3 2 2 2 2 1 0 1 1 1 1 2 1 1 2 1 2 2 2 2 2 3 3 4 4 4 4 5
2 3 4 3 3 2 2 1 2 3 3 3 2 1 0 0 1 1 0 0 1 2 3 3 2 2 2 3 3 3 2 3 3 4 5 5 6 6
4 2 2 2 2 1 1 1 1 2 2 1 2 1 1 0 0 0 1 1 0 1 2 2 3 2 2 2 2 4 4 4 4 4 3 5 6 7
6 3 3 3 3 3 3 2 2 2 2 2 2 2 2 2 1 0 1 1 2 2 2 2 1 2 2 2 4 4 4 4 4 4 3 4 7 7
4 3 3 3 3 3 3 3 2 3 2 3 3 2 2 2 1 1 1 1 2 3 2 1 0 0 2 5 4 4 3 4 4 3 4 4 6 7
3 3 3 3 3 3 3 3 2 2 2 2 2 2 2 2 2 2 2 3 3 3 2 1 2 3 4 5 4 3 5 4 4 5 4 4 6 8
3 3 3 3 3 3 3 3 3 3 3 2 2 3 3 3 3 3 3 3 3 3 4 4 5 5 2 1 3 4 4 7 6 4 4 4 5 5
3 3 3 3 3 3 2 2 2 2 2 3 3 3 3 3 3 3 3 3 3 4 5 4 2 1 1 3 6 6 5 5 6 8 8 6 3 4
4 3 3 2 2 2 2 3 3 2 2 3 3 3 3 3 3 3 3 3 3 4 4 3 2 1 3 4 5 6 7 6 4 5 6 10 12 14
Wind_Direction
142 143 131 132 138 140 141 145 144 153 297 308 323 336 360 20 22 26 26 32 36 38 42 44 45 46 45 45 44 43 43 43 44 44 43 43 43 44
128 127 121 126 122 120 127 123 132 150 178 274 276 294 349 22 25 25 20 23 31 35 39 43 45 44 42 42 42 41 42 42 43 43 43 42 42 43
108 127 125 125 124 119 112 112 115 128 154 283 319 339 11 12 13 18 18 19 19 29 35 39 41 40 38 38 37 37 37 37 38 41 42 41 41 42
141 128 131 128 120 125 124 120 127 131 145 163 341 353 354 348 356 5 10 14 12 20 27 33 36 36 35 34 33 31 31 31 32 35 38 37 38 39
155 151 156 142 140 139 132 127 124 113 114 136 125 2 356 4 11 5 13 8 7 9 17 22 27 28 27 26 26 27 30 32 32 34 35 36 36 36
150 157 160 161 167 159 147 139 127 111 105 108 91 28 0 348 30 15 360 0 360 8 10 11 13 15 17 22 23 23 27 31 31 33 36 37 36 33
143 151 158 168 173 163 153 152 140 128 120 112 103 52 359 3 308 291 297 326 337 360 355 3 7 8 6 11 16 22 29 33 34 35 36 34 32 29
165 169 154 154 166 156 149 147 147 146 154 146 150 177 240 228 212 184 181 14 324 346 10 343 9 353 341 355 11 24 29 30 30 30 31 28 26 23
167 162 138 129 141 138 135 137 142 144 152 156 162 200 210 214 180 168 177 174 234 310 31 327 355 348 334 357 15 23 25 25 26 23 20 17 15 14
167 170 161 157 147 142 128 116 115 125 158 156 176 200 201 191 183 186 188 179 281 346 93 302 328 323 340 347 11 25 28 26 22 17 14 12 9 6
168 165 171 171 162 150 139 141 137 289 144 165 178 194 188 158 151 113 100 102 305 316 33 227 299 317 331 340 352 11 20 19 18 17 14 10 6 4
168 180 179 178 172 161 158 162 182 228 149 96 71 33 48 85 148 158 165 157 189 286 291 212 285 334 323 324 349 355 0 360 0 1 1 358 358 2
179 195 198 180 176 168 164 174 193 178 144 134 104 44 42 49 55 174 176 168 176 233 246 173 202 220 247 294 322 347 350 344 345 345 345 344 343 346
190 197 187 169 169 168 169 174 172 150 128 121 112 24 318 292 299 267 197 202 204 229 242 169 183 195 210 264 285 316 331 334 337 333 331 333 328 319
191 172 165 165 162 164 172 172 161 144 139 151 195 238 247 237 138 73 58 75 29 341 325 222 198 200 193 233 266 288 305 317 324 320 320 317 313 316
184 149 142 148 150 140 133 160 160 162 167 189 203 220 192 102 129 146 134 75 25 334 341 317 267 206 220 243 248 274 286 295 317 317 313 307 303 297
145 114 109 115 133 147 145 154 154 155 178 193 191 194 177 153 236 136 132 117 190 299 325 342 339 309 256 230 257 270 281 289 294 301 308 307 298 293
138 145 164 173 186 194 190 190 184 197 205 196 198 206 207 212 232 189 147 184 238 269 283 304 352 3 344 292 233 251 272 282 294 295 288 295 298 299
145 161 175 190 200 201 200 199 211 214 198 191 204 215 213 211 213 224 224 237 254 266 275 287 350 253 294 299 285 230 254 289 305 302 286 278 286 298
163 180 192 197 199 199 203 204 208 193 182 192 203 211 208 208 219 232 233 238 251 265 278 271 247 241 247 269 279 281 253 262 280 289 292 290 286 293
189 200 203 200 202 199 200 195 189 193 190 190 206 213 214 212 226 236 240 248 247 258 265 269 264 261 264 307 294 295 284 267 267 278 290 299 307 309
187 194 199 195 197 194 191 188 188 196 195 203 215 219 218 217 228 233 235 242 249 252 262 277 303 308 231 256 274 285 294 301 293 285 275 265 281 288
189 186 189 191 196 190 187 189 191 207 210 215 218 220 216 222 232 236 241 244 250 258 267 281 294 275 264 262 274 283 291 301 307 307 294 288 283 280
Height
1557 1557 1557 1558 1558 1558 1559 1559 1559 1558 1558 1558 1557 1557 1556 1555 1553 1552 1550 1549 1547 1546 1544 1543 1541 1540 1539 1538 1536 1535 1534 1533 1532 1531 1530 1529 1528 1527
1556 1557 1557 1557 1558 1558 1558 1558 1558 1559 1558 1558 1557 1557 1556 1555 1554 1552 1551 1550 1548 1547 1545 1544 1543 1541 1540 1539 1538 1536 1535 1534 1533 1532 1531 1529 1528 1527
1556 1556 1556 1557 1557 1557 1558 1558 1558 1558 1557 1557 1557 1557 1556 1555 1554 1553 1552 1550 1549 1548 1546 1545 1544 1542 1541 1540 1539 1537 1536 1535 1534 1532 1531 1530 1529 1527
1555 1556 1556 1556 1556 1557 1557 1557 1557 1557 1557 1557 1556 1556 1556 1555 1554 1553 1552 1551 1550 1549 1547 1546 1545 1543 1542 1541 1539 1538 1537 1535 1534 1533 1531 1530 1529 1527
1555 1555 1555 1556 1556 1556 1556 1557 1557 1557 1557 1556 1556 1556 1555 1555 1554 1553 1552 1551 1550 1549 1548 1547 1545 1544 1543 1541 1540 1538 1537 1535 1534 1533 1531 1530 1529 1527
1554 1555 1555 1555 1556 1556 1556 1556 1556 1556 1556 1556 1556 1555 1555 1555 1554 1553 1552 1552 1550 1549 1548 1547 1546 1544 1543 1541 1540 1538 1537 1535 1534 1533 1531 1530 1528 1526
1553 1554 1554 1555 1555 1555 1556 1556 1556 1556 1556 1556 1555 1555 1554 1554 1554 1553 1552 1551 1550 1549 1548 1547 1546 1544 1543 1541 1540 1538 1536 1535 1533 1532 1531 1529 1528 1526
1552 1553 1553 1554 1554 1555 1555 1555 1556 1556 1555 1555 1555 1554 1554 1554 1553 1552 1552 1551 1550 1550 1548 1547 1546 1544 1543 1541 1540 1538 1536 1535 1533 1531 1530 1528 1527 1526
1552 1552 1552 1553 1553 1554 1554 1554 1554 1554 1555 1555 1554 1554 1553 1553 1552 1551 1551 1550 1549 1548 1547 1546 1545 1543 1542 1540 1539 1537 1536 1534 1532 1531 1529 1528 1526 1524
1550 1551 1551 1552 1552 1553 1553 1553 1553 1553 1553 1553 1553 1553 1552 1552 1551 1551 1550 1549 1548 1547 1546 1544 1543 1542 1541 1539 1538 1536 1535 1533 1531 1529 1528 1526 1524 1522
1548 1549 1550 1550 1551 1551 1552 1552 1552 1552 1552 1552 1552 1551 1551 1550 1550 1549 1548 1547 1546 1546 1545 1543 1542 1541 1539 1538 1536 1535 1533 1531 1530 1528 1526 1524 1522 1520
1546 1547 1548 1548 1549 1549 1549 1550 1550 1550 1550 1550 1550 1549 1549 1548 1548 1547 1546 1546 1544 1544 1543 1542 1540 1539 1537 1536 1534 1533 1531 1529 1527 1526 1524 1522 1520 1517
1544 1545 1545 1546 1546 1547 1547 1547 1547 1548 1548 1548 1548 1547 1547 1546 1545 1545 1544 1544 1543 1542 1541 1540 1538 1536 1535 1533 1532 1530 1528 1526 1524 1523 1521 1519 1517 1514
1542 1542 1543 1543 1543 1544 1544 1544 1545 1545 1545 1545 1545 1544 1544 1543 1543 1543 1542 1541 1540 1540 1539 1537 1535 1534 1532 1530 1528 1527 1525 1523 1521 1519 1517 1515 1513 1511
1539 1539 1540 1540 1540 1541 1541 1542 1542 1542 1542 1542 1542 1541 1541 1541 1541 1540 1539 1539 1538 1537 1535 1534 1533 1531 1529 1527 1525 1524 1522 1520 1518 1516 1514 1512 1509 1507
1535 1536 1536 1537 1537 1537 1538 1538 1538 1538 1539 1539 1539 1539 1539 1538 1537 1537 1536 1535 1534 1533 1532 1531 1529 1528 1526 1524 1523 1520 1519 1516 1514 1512 1510 1508 1506 1503
1531 1532 1532 1533 1533 1533 1534 1534 1535 1535 1535 1535 1535 1535 1535 1535 1534 1533 1533 1532 1530 1529 1528 1527 1526 1524 1522 1521 1518 1516 1514 1512 1510 1508 1505 1503 1501 1499
1528 1528 1528 1529 1529 1530 1530 1531 1531 1531 1532 1532 1532 1532 1531 1531 1530 1530 1529 1528 1526 1525 1524 1523 1521 1520 1518 1516 1516 1512 1510 1508 1506 1504 1501 1498 1495 1494
1523 1524 1524 1525 1526 1526 1527 1527 1527 1528 1528 1528 1528 1528 1528 1527 1527 1526 1525 1524 1522 1521 1520 1519 1517 1515 1513 1511 1510 1509 1506 1503 1501 1499 1496 1494 1491 1489
1519 1520 1521 1522 1522 1523 1523 1523 1524 1524 1524 1524 1524 1524 1524 1523 1522 1521 1521 1519 1518 1517 1516 1514 1513 1512 1510 1508 1505 1503 1502 1499 1497 1494 1491 1489 1487 1484
1516 1517 1517 1518 1519 1519 1520 1520 1520 1520 1520 1520 1520 1520 1520 1519 1518 1517 1516 1515 1514 1513 1511 1510 1509 1508 1506 1504 1501 1498 1498 1496 1493 1490 1487 1484 1481 1478
1513 1513 1514 1515 1515 1516 1516 1516 1516 1516 1516 1516 1516 1516 1515 1514 1513 1513 1512 1511 1509 1508 1507 1506 1505 1503 1501 1499 1496 1494 1492 1491 1489 1487 1484 1481 1478 1473
1509 1510 1511 1511 1512 1512 1512 1512 1512 1512 1512 1512 1512 1511 1511 1510 1509 1508 1507 1506 1505 1503 1502 1501 1499 1498 1496 1494 1492 1489 1487 1485 1483 1481 1479 1477 1475 1472